This is the latest recevied weather packets stored in our database for station/object OE1HTB-13. If no packets are shown the sender has not sent any weather packets the latest 10 day(s).
| Time | Temp. | Humidity | Pressure | Rain* | Wind** | Luminosity | Snow |
|---|---|---|---|---|---|---|---|
| 1777724174 | 23.33° C | 32% | 1021.7 hPa | 0 mm | - | 798 W/m² | - |
| 1777723274 | 23.89° C | 36% | 1022 hPa | 0 mm | - | 810 W/m² | - |
| 1777722373 | 22.22° C | 36% | 1022.2 hPa | 0 mm | - | 823 W/m² | - |
| 1777721473 | 23.33° C | 33% | 1022.4 hPa | 0 mm | - | 835 W/m² | - |
| 1777720573 | 21.67° C | 36% | 1022.5 hPa | 0 mm | - | 838 W/m² | - |
| 1777719673 | 22.78° C | 36% | 1022.7 hPa | 0 mm | - | 846 W/m² | - |
| 1777718774 | 23.33° C | 32% | 1022.9 hPa | 0 mm | - | 849 W/m² | - |
| 1777717873 | 21.67° C | 33% | 1023.1 hPa | 0 mm | - | 844 W/m² | - |
| 1777716972 | 21.67° C | 34% | 1023.3 hPa | 0 mm | - | 842 W/m² | - |
| 1777716072 | 22.22° C | 41% | 1023.5 hPa | 0 mm | - | 830 W/m² | - |
| 1777715172 | 21.67° C | 38% | 1023.5 hPa | 0 mm | - | 816 W/m² | - |
| 1777714272 | 21.11° C | 38% | 1023.7 hPa | 0 mm | - | 800 W/m² | - |
| 1777713372 | 21.11° C | 39% | 1023.8 hPa | 0 mm | - | 780 W/m² | - |
| 1777712472 | 20.56° C | 37% | 1024 hPa | 0 mm | - | 765 W/m² | - |
| 1777711573 | 20.56° C | 40% | 1024 hPa | 0 mm | - | 737 W/m² | - |
| 1777710671 | 21.11° C | 41% | 1024.2 hPa | 0 mm | - | 710 W/m² | - |
| 1777709771 | 20° C | 47% | 1024.2 hPa | 0 mm | - | 686 W/m² | - |
| 1777708872 | 19.44° C | 45% | 1024.4 hPa | 0 mm | - | 654 W/m² | - |
| 1777707972 | 18.89° C | 45% | 1024.4 hPa | 0 mm | - | 621 W/m² | - |
| 1777707071 | 18.33° C | 46% | 1024.6 hPa | 0 mm | - | 584 W/m² | - |
| 1777706171 | 17.78° C | 48% | 1024.5 hPa | 0 mm | - | 548 W/m² | - |
| 1777705271 | 17.78° C | 48% | 1024.5 hPa | 0 mm | - | 508 W/m² | - |
| 1777704371 | 16.67° C | 53% | 1024.5 hPa | 0 mm | - | 468 W/m² | - |
| 1777703471 | 15.56° C | 54% | 1024.5 hPa | 0 mm | - | 116 W/m² | - |
| 1777702570 | 15° C | 56% | 1024.5 hPa | 0 mm | - | 285 W/m² | - |
* Rain latest hour (hover to see other rain measurements)
** Current wind speed in m/s (hover to see current wind gust speed)